C/2020 F5 ( MASTER )

Japanese version
Home page
Updated on February 20, 2021

---------------------------------------------------------------------

* Profile

Discovery Date March 28, 2020
Magnitude 15.8 mag
Discoverer Mobile Astronomical System of the Telescope-Robots (MASTER) auto-detection system near San Juan, Argentina

* Pictures

* Orbital Elements

Epoch 2021 Mar. 7.0 TT = JDT 2459280.5
T 2021 Mar. 24.25090 TT                                 Rudenko
q   4.3259796            (2000.0)            P               Q
z  -0.0007677      Peri.  311.06801     +0.57212115     +0.81015321
 +/-0.0000040      Node   350.62965     -0.28569002     +0.05080732
e   1.0033211      Incl.   51.70683     -0.76880336     +0.58401233
From 257 observations 2020 Mar. 16-2021 Jan. 14, mean residual 0".7.

* Finding Charts

* Magnitudes Graph

        m1 = 5.3 + 5 log d + 10.0 log r

---------------------------------------------------------------------

The orbital elements are published on M.P.E.C. 2021-B143.
The charts are made with StellaNavigator Ver.10 (AstroArts).
The magnitudes graphs are made with Comet for Windows.

---------------------------------------------------------------------

Copyright(C) Seiichi Yoshida (comet@aerith.net). All rights reserved.